QPF
0.00 0.00 0.00 0.00 0.00 0.00 0.00 0.00 0.00 0.00 0.00 0.00 0.00 0.01 0.02 0.03 0.05 0.06 0.05 0.04 0.02 0.01
0.00 0.00 0.00 0.00 0.00 0.00 0.00 0.00 0.00 0.00 0.00 0.00 0.02 0.02 0.01 0.01 0.01 0.01 0.02 0.02 0.01 0.01
0.00 0.00 0.00 0.00 0.00 0.00 0.00 0.00 0.00 0.01 0.02 0.02 0.03 0.05 0.06 0.06 0.06 0.05 0.04 0.02 0.01 0.02
0.00 0.00 0.00 0.00 0.00 0.00 0.00 0.00 0.01 0.03 0.04 0.04 0.03 0.03 0.03 0.04 0.05 0.04 0.03 0.02 0.02 0.01
0.04 0.01 0.00 0.00 0.00 0.00 0.00 0.00 0.01 0.00 0.02 0.03 0.01 0.01 0.01 0.00 0.01 0.02 0.01 0.00 0.00 0.00
0.03 0.03 0.02 0.01 0.01 0.00 0.00 0.02 0.04 0.07 0.03 0.01 0.00 0.00 0.00 0.00 0.00 0.00 0.00 0.00 0.00 0.00
0.01 0.01 0.03 0.05 0.06 0.02 0.03 0.05 0.09 0.08 0.07 0.03 0.00 0.00 0.00 0.00 0.00 0.00 0.00 0.00 0.00 0.00
0.00 0.00 0.01 0.01 0.05 0.06 0.05 0.08 0.09 0.09 0.03 0.03 0.04 0.02 0.02 0.01 0.01 0.00 0.00 0.00 0.00 0.00
0.00 0.00 0.00 0.00 0.02 0.03 0.03 0.03 0.04 0.05 0.04 0.02 0.03 0.04 0.02 0.01 0.00 0.00 0.00 0.00 0.00 0.00
0.00 0.00 0.00 0.01 0.01 0.02 0.04 0.04 0.04 0.04 0.05 0.06 0.04 0.03 0.01 0.01 0.00 0.00 0.00 0.00 0.00 0.00
0.00 0.00 0.00 0.01 0.04 0.05 0.05 0.05 0.04 0.04 0.04 0.03 0.01 0.01 0.00 0.00 0.00 0.00 0.00 0.00 0.00 0.00
0.01 0.01 0.01 0.03 0.04 0.04 0.05 0.04 0.02 0.02 0.01 0.01 0.00 0.00 0.00 0.00 0.00 0.00 0.00 0.00 0.00 0.00
0.01 0.01 0.00 0.01 0.00 0.01 0.01 0.01 0.00 0.00 0.00 0.00 0.00 0.00 0.00 0.00 0.00 0.00 0.00 0.00 0.00 0.00
0.00 0.00 0.00 0.00 0.00 0.00 0.00 0.00 0.00 0.00 0.00 0.00 0.00 0.00 0.00 0.00 0.00 0.00 0.00 0.00 0.00 0.00
MSLP
1014.55 1015.03 1015.71 1015.73 1016.16 1016.50 1016.81 1016.73 1017.06 1017.26 1017.24 1017.46 1017.95 1018.57 1018.95 1019.36 1020.03 1020.55 1020.78 1020.62 1020.71 1020.89
1013.75 1014.36 1014.85 1015.24 1015.55 1015.91 1016.02 1016.09 1016.30 1016.20 1016.34 1016.58 1017.29 1017.81 1018.21 1018.72 1018.82 1019.53 1019.85 1019.82 1020.32 1020.35
1012.83 1013.47 1014.11 1014.63 1014.94 1015.22 1015.28 1015.46 1015.19 1015.21 1015.64 1016.39 1016.71 1017.04 1017.48 1017.36 1017.21 1017.93 1018.67 1019.44 1019.82 1019.83
1011.62 1012.18 1012.71 1013.18 1013.40 1013.77 1014.06 1013.74 1014.38 1014.96 1015.32 1015.45 1015.73 1015.98 1016.32 1015.91 1017.03 1017.41 1018.28 1018.64 1018.82 1019.06
1010.23 1010.77 1011.49 1011.79 1011.82 1010.99 1012.41 1013.15 1013.44 1013.74 1014.01 1014.12 1014.78 1015.46 1015.59 1016.23 1016.50 1016.93 1017.47 1017.66 1018.11 1018.57
1009.12 1009.67 1009.96 1010.41 1010.70 1011.07 1011.48 1011.95 1012.32 1012.76 1013.24 1013.56 1014.05 1014.72 1015.16 1015.67 1016.15 1016.33 1016.80 1017.26 1017.77 1018.22
1007.80 1008.03 1008.46 1008.91 1009.37 1009.80 1010.38 1011.10 1011.64 1012.07 1012.43 1012.82 1013.31 1013.79 1014.26 1014.94 1015.48 1016.05 1016.41 1016.63 1017.15 1017.71
1006.06 1006.84 1007.36 1007.76 1008.24 1008.92 1009.57 1010.02 1010.72 1011.35 1011.68 1012.18 1012.68 1013.12 1013.74 1014.36 1015.04 1015.49 1016.00 1016.63 1017.15 1017.76
1005.20 1005.85 1006.35 1007.02 1007.72 1008.25 1008.71 1009.16 1009.88 1010.52 1011.00 1011.65 1011.96 1012.51 1013.51 1013.84 1014.44 1015.22 1015.86 1016.68 1017.54 1018.09
1004.51 1005.10 1005.74 1006.36 1007.09 1007.69 1008.13 1008.91 1009.48 1010.05 1010.55 1011.30 1011.87 1012.39 1013.23 1013.79 1014.51 1015.16 1015.93 1016.80 1017.64 1018.42
1004.05 1004.71 1005.58 1006.21 1006.91 1007.58 1008.29 1008.83 1009.42 1010.23 1010.79 1011.49 1012.23 1012.92 1013.57 1014.12 1014.98 1015.77 1016.59 1017.28 1018.02 1018.81
1004.19 1005.03 1005.85 1006.57 1007.27 1007.99 1008.71 1009.48 1010.17 1010.75 1011.29 1011.86 1012.63 1013.15 1013.81 1014.38 1015.43 1016.49 1017.50 1018.10 1018.81 1019.48
1004.53 1005.30 1006.22 1006.89 1007.75 1008.55 1009.30 1010.30 1011.07 1011.75 1012.45 1012.86 1013.55 1014.07 1014.34 1014.93 1015.99 1017.09 1018.08 1018.90 1019.56 1020.06
1005.21 1005.99 1006.85 1007.39 1008.43 1009.22 1009.88 1010.77 1011.89 1012.81 1013.82 1014.23 1014.63 1015.06 1015.19 1015.69 1016.31 1017.25 1018.31 1019.20 1020.14 1020.70
Thickness
5603 5600 5594 5598 5596 5592 5590 5592 5589 5588 5589 5588 5582 5576 5572 5570 5566 5561 5559 5562 5561 5559
5606 5602 5599 5597 5596 5592 5592 5592 5590 5592 5592 5590 5583 5575 5571 5568 5566 5561 5558 5559 5555 5555
5609 5605 5601 5597 5594 5591 5590 5589 5594 5593 5588 5580 5576 5573 5568 5571 5571 5565 5560 5553 5550 5549
5615 5610 5605 5600 5598 5593 5590 5594 5588 5584 5581 5579 5576 5572 5571 5570 5565 5561 5552 5549 5548 5546
5619 5614 5608 5604 5602 5608 5594 5586 5584 5582 5579 5580 5575 5568 5564 5560 5561 5557 5550 5547 5545 5541
5623 5618 5613 5608 5605 5600 5595 5590 5586 5580 5579 5576 5571 5566 5561 5559 5556 5554 5547 5543 5538 5533
5626 5623 5619 5614 5609 5605 5599 5593 5587 5583 5579 5575 5570 5566 5561 5556 5552 5546 5542 5540 5534 5528
5633 5625 5620 5616 5611 5604 5599 5594 5588 5583 5579 5572 5567 5564 5557 5552 5544 5541 5535 5529 5523 5516
5632 5626 5621 5614 5606 5602 5598 5594 5587 5581 5575 5567 5566 5559 5551 5547 5542 5533 5526 5517 5507 5501
5630 5625 5618 5612 5603 5598 5594 5585 5580 5575 5570 5562 5557 5550 5542 5537 5529 5522 5514 5505 5496 5486
5625 5620 5612 5605 5597 5587 5581 5577 5569 5562 5557 5551 5543 5534 5528 5523 5514 5505 5495 5487 5478 5469
5614 5605 5598 5592 5584 5575 5568 5561 5554 5548 5543 5537 5529 5523 5516 5509 5497 5485 5473 5466 5457 5448
5601 5594 5585 5578 5569 5559 5552 5543 5536 5528 5521 5516 5509 5502 5497 5490 5477 5465 5454 5444 5435 5428
5584 5577 5568 5563 5551 5543 5536 5526 5515 5506 5497 5491 5486 5479 5476 5469 5461 5450 5438 5427 5416 5408